STARLINK-32825, 62825

Orbit data source: Space-Track

STARLINK-32825, 62825 is a payload satellite owned by SpaceX/Seattle (US) in LEO that was launched on Fri, 24 Jan 2025 UTC via an FALCON 9 launch vehicle from the Air Force Western Test Range (AFWTR). Payload-class satellites include a variety of spacecraft equipped with specific instruments for various scientific and technological missions. These include communications satellites like Starlink; space stations such as the ISS; scientific satellites like the Hubble; Earth observation satellites from companies like Planet Labs, Umbra, and HawkEye 360; GPS; miniature CubeSats for education and research; and military/defense satellites.

Loading next visibility...
Identifier
62825, 2025-018V
Orbit
LEO
Country
Flag of USUS
Related business
Manufacturer
SpaceX/Seattle
Mission
Operational Commercial Communications
Bus & Motor
STARLINK V2M, Unknown motor
Mass
730 kg wet, ~700 kg dry
Launch date (UTC)
2025-01-24 (11 months ago)
Launch vehicle
FALCON 9
Launch site
Air Force Western Test Range (AFWTR)
Object type
Payload
Rocket body
Debris
Shape & HBR
Box + 2 Pan, 17.7 m
Radar Cross Section
33.884 m², Large (>1 m²)

Expand to show TLE details & history
Last TLE update: 23 hours ago

TLE from 23 hours ago
0 STARLINK-32825
1 62825U 25018V   25353.08346975  .00020686  00000-0  70831-3 0  9993
2 62825  53.1609 321.4144 0001427 101.8400 258.2761 15.30213359 50868
Epoch: 2025-12-19T02:00Z
TLE epoch observation values (Epoch: 2025-12-19T02:00:11.786Z)
Latitude
-0.00001°
Longitude
-156.56443°
Altitude
476.274 km
Speed
7.629 km/s
True Right ascension
21h 25m 39s
True Declination
0° 00' 00"
Sunlit
Object was in daylight at epoch
Visualization orbit readout
Latitude
Unknown
Longitude
Unknown
Altitude
Unknown
Speed
Unknown
Apparent Right ascension
Unknown
Apparent Declination
Unknown
Sunlit
N/A
Visualization observer readout
Local Sidereal Time
00:14:40
Azimuth
Unknown
Elevation
Unknown
Doppler factor
Unknown
Orbital elements
Apogee altitude
476.409 km
Perigee altitude
474.453 km
Semi-major axis
6,853.568 km
Eccentricity
0.00014
Inclination
53.1609°
RAAN
321.4144°
Arg. of periapsis
101.84°
True anomaly
258.26009°
Mean anomaly
258.2761°
Eccentric anomaly
258.26809°
Mean motion
3.82532 °/min
Orbital period
94.11 mins
BSTAR
0.00070831
Loading maneuver chart data...
Computing Atmospheric mass density...
Loading historical data...
Loading historical data...
Loading historical data...
Loading historical data...
Loading historical data...
Loading historical data...
Loading historical data...

Documentation

Showing up to 5 results
|